• In Belarus
  • List of Countries
  • For 7 days
  • Water Temperature
  • Satellite Maps
  • Weather Map
  • Weather Widgets
  • user-avatar
    Login

    Hourly Weather Ioannina

    Today, 23 January, Tuesday

    Time Temperature Precipitation Wind Pressure Humidity
    00:00 -2°C° 0 mm 2 mps 683 mmHg 69%
    01:00 -2°C° 0 mm 2 mps 682 mmHg 64%
    02:00 -2°C° 0 mm 2 mps 683 mmHg 62%
    03:00 -2°C° 0 mm 2 mps 683 mmHg 61%
    04:00 0°C° 0 mm 1 mps 683 mmHg 59%
    05:00 0°C° 0 mm 1 mps 683 mmHg 59%
    06:00 0°C° 0 mm 1 mps 684 mmHg 58%
    07:00 0°C° 0 mm 1 mps 684 mmHg 57%
    08:00 +2°C° 0 mm 1 mps 685 mmHg 53%
    09:00 +3°C° 0 mm 1 mps 685 mmHg 49%
    10:00 +5°C° 0 mm 1 mps 686 mmHg 44%
    11:00 +6°C° 0 mm 1 mps 686 mmHg 43%
    12:00 +7°C° 0 mm 1 mps 687 mmHg 42%
    13:00 +7°C° 0 mm 1 mps 687 mmHg 42%
    14:00 +7°C° 0 mm 1 mps 687 mmHg 47%
    15:00 +6°C° 0 mm 1 mps 687 mmHg 52%
    16:00 +5°C° 0 mm 1 mps 687 mmHg 58%
    17:00 +5°C° 0 mm 1 mps 687 mmHg 60%
    18:00 +4°C° 0 mm 1 mps 688 mmHg 62%
    19:00 +3°C° 0 mm 1 mps 688 mmHg 64%
    20:00 +3°C° 0.1 mm 1 mps 688 mmHg 67%
    21:00 +1°C° 0.1 mm 2 mps 689 mmHg 69%
    22:00 +1°C° 0.1 mm 2 mps 689 mmHg 71%
    23:00 +1°C° 0 mm 2 mps 689 mmHg 73%

    Tomorrow, 24 January, Wednesday

    Time Temperature Precipitation Wind Pressure Humidity
    00:00 -1°C° 0 mm 2 mps 689 mmHg 75%
    01:00 -1°C° 0 mm 2 mps 690 mmHg 77%
    02:00 -2°C° 0 mm 2 mps 690 mmHg 77%
    03:00 -2°C° 0 mm 2 mps 690 mmHg 77%
    04:00 -3°C° 0 mm 2 mps 690 mmHg 78%
    05:00 -3°C° 0 mm 2 mps 690 mmHg 77%
    06:00 -3°C° 0 mm 2 mps 691 mmHg 77%
    07:00 -3°C° 0 mm 2 mps 691 mmHg 76%
    08:00 -2°C° 0 mm 2 mps 692 mmHg 69%
    09:00 +1°C° 0 mm 2 mps 693 mmHg 61%
    10:00 +3°C° 0 mm 2 mps 693 mmHg 54%
    11:00 +4°C° 0 mm 2 mps 694 mmHg 51%
    12:00 +4°C° 0 mm 2 mps 694 mmHg 48%
    13:00 +6°C° 0 mm 1 mps 694 mmHg 45%
    14:00 +5°C° 0 mm 1 mps 694 mmHg 49%
    15:00 +5°C° 0 mm 1 mps 694 mmHg 53%
    16:00 +4°C° 0 mm 1 mps 694 mmHg 57%
    17:00 +3°C° 0 mm 1 mps 694 mmHg 60%
    18:00 +2°C° 0 mm 1 mps 694 mmHg 63%
    19:00 0°C° 0 mm 1 mps 694 mmHg 66%
    20:00 0°C° 0 mm 1 mps 694 mmHg 66%
    21:00 -2°C° 0 mm 2 mps 694 mmHg 66%
    22:00 -3°C° 0 mm 2 mps 694 mmHg 66%
    23:00 -3°C° 0 mm 2 mps 694 mmHg 65%

    Day after tomorrow, 25 January, Thursday

    Time Temperature Precipitation Wind Pressure Humidity
    00:00 -3°C° 0 mm 2 mps 694 mmHg 65%
    01:00 -3°C° 0 mm 2 mps 694 mmHg 64%
    02:00 -3°C° 0 mm 2 mps 694 mmHg 63%
    03:00 -3°C° 0 mm 2 mps 693 mmHg 62%
    04:00 -3°C° 0 mm 2 mps 693 mmHg 62%
    05:00 -1°C° 0 mm 1 mps 693 mmHg 61%
    06:00 -1°C° 0 mm 1 mps 693 mmHg 60%
    07:00 -1°C° 0 mm 1 mps 693 mmHg 59%
    08:00 +1°C° 0 mm 1 mps 694 mmHg 53%
    09:00 +3°C° 0 mm 1 mps 694 mmHg 47%
    10:00 +5°C° 0 mm 1 mps 694 mmHg 42%
    11:00 +6°C° 0 mm 1 mps 694 mmHg 41%
    12:00 +7°C° 0 mm 1 mps 694 mmHg 40%
    13:00 +8°C° 0 mm 1 mps 694 mmHg 40%
    14:00 +7°C° 0 mm 1 mps 693 mmHg 46%
    15:00 +6°C° 0 mm 1 mps 693 mmHg 53%
    16:00 +5°C° 0 mm 1 mps 692 mmHg 59%
    17:00 +4°C° 0 mm 1 mps 692 mmHg 63%
    18:00 +2°C° 0 mm 1 mps 692 mmHg 67%
    19:00 +1°C° 0 mm 1 mps 692 mmHg 71%
    20:00 +1°C° 0 mm 1 mps 692 mmHg 70%
    21:00 +1°C° 0 mm 1 mps 692 mmHg 69%
    22:00 +1°C° 0 mm 1 mps 692 mmHg 69%
    23:00 +1°C° 0 mm 1 mps 692 mmHg 67%

    26 January, Friday

    Time Temperature Precipitation Wind Pressure Humidity
    00:00 +1°C° 0 mm 1 mps 691 mmHg 66%
    01:00 0°C° 0 mm 1 mps 691 mmHg 64%
    02:00 0°C° 0 mm 1 mps 691 mmHg 63%
    03:00 0°C° 0 mm 1 mps 691 mmHg 62%
    04:00 0°C° 0 mm 1 mps 690 mmHg 61%
    05:00 0°C° 0 mm 1 mps 690 mmHg 61%
    06:00 0°C° 0 mm 1 mps 690 mmHg 61%
    07:00 0°C° 0 mm 1 mps 690 mmHg 61%
    08:00 +2°C° 0 mm 1 mps 691 mmHg 56%
    09:00 +5°C° 0 mm 1 mps 691 mmHg 52%
    10:00 +7°C° 0 mm 1 mps 692 mmHg 47%
    11:00 +7°C° 0 mm 1 mps 692 mmHg 47%
    12:00 +8°C° 0 mm 1 mps 691 mmHg 47%
    13:00 +9°C° 0 mm 1 mps 691 mmHg 48%
    14:00 +8°C° 0 mm 1 mps 691 mmHg 54%
    15:00 +7°C° 0 mm 1 mps 691 mmHg 60%
    16:00 +6°C° 0 mm 1 mps 690 mmHg 67%
    17:00 +5°C° 0 mm 1 mps 690 mmHg 71%
    18:00 +4°C° 0 mm 1 mps 690 mmHg 76%
    19:00 +2°C° 0 mm 1 mps 690 mmHg 80%
    20:00 +2°C° 0 mm 1 mps 691 mmHg 80%
    21:00 +2°C° 0 mm 1 mps 691 mmHg 80%
    22:00 +2°C° 0 mm 1 mps 691 mmHg 81%
    23:00 +2°C° 0 mm 1 mps 691 mmHg 80%

    27 January, Saturday

    Time Temperature Precipitation Wind Pressure Humidity
    00:00 +1°C° 0 mm 1 mps 691 mmHg 80%
    01:00 +1°C° 0 mm 1 mps 691 mmHg 80%
    02:00 +1°C° 0 mm 1 mps 691 mmHg 79%
    03:00 +1°C° 0 mm 1 mps 691 mmHg 78%
    04:00 +1°C° 0 mm 1 mps 690 mmHg 77%
    05:00 +1°C° 0 mm 1 mps 691 mmHg 76%
    06:00 +1°C° 0 mm 1 mps 691 mmHg 75%
    07:00 +1°C° 0 mm 1 mps 691 mmHg 74%
    08:00 +3°C° 0 mm 1 mps 691 mmHg 67%
    09:00 +5°C° 0 mm 1 mps 692 mmHg 60%
    10:00 +7°C° 0 mm 1 mps 692 mmHg 53%
    11:00 +8°C° 0 mm 1 mps 692 mmHg 51%
    12:00 +9°C° 0 mm 1 mps 692 mmHg 49%
    13:00 +10°C° 0 mm 1 mps 692 mmHg 48%
    14:00 +9°C° 0 mm 1 mps 692 mmHg 53%
    15:00 +8°C° 0 mm 1 mps 692 mmHg 59%
    16:00 +7°C° 0 mm 1 mps 692 mmHg 65%
    17:00 +6°C° 0 mm 1 mps 692 mmHg 69%
    18:00 +5°C° 0 mm 1 mps 692 mmHg 72%
    19:00 +3°C° 0 mm 1 mps 692 mmHg 76%
    20:00 +3°C° 0 mm 1 mps 692 mmHg 76%
    21:00 +3°C° 0 mm 1 mps 693 mmHg 77%
    22:00 +3°C° 0 mm 1 mps 693 mmHg 77%
    23:00 +3°C° 0 mm 1 mps 693 mmHg 77%

    28 January, Sunday

    Time Temperature Precipitation Wind Pressure Humidity
    00:00 +2°C° 0 mm 1 mps 693 mmHg 77%
    01:00 +2°C° 0 mm 1 mps 693 mmHg 77%
    02:00 +2°C° 0 mm 1 mps 693 mmHg 76%
    03:00 +2°C° 0 mm 1 mps 693 mmHg 76%
    04:00 +2°C° 0 mm 1 mps 693 mmHg 76%
    05:00 +2°C° 0 mm 1 mps 693 mmHg 76%
    06:00 +2°C° 0 mm 1 mps 694 mmHg 77%
    07:00 +2°C° 0 mm 1 mps 694 mmHg 77%
    08:00 +4°C° 0 mm 1 mps 694 mmHg 70%
    09:00 +6°C° 0 mm 1 mps 695 mmHg 63%
    10:00 +8°C° 0 mm 1 mps 696 mmHg 57%
    11:00 +9°C° 0 mm 1 mps 696 mmHg 54%
    12:00 +10°C° 0 mm 1 mps 696 mmHg 51%
    13:00 +11°C° 0 mm 1 mps 696 mmHg 49%
    14:00 +10°C° 0 mm 1 mps 696 mmHg 54%
    15:00 +9°C° 0 mm 1 mps 695 mmHg 59%
    16:00 +8°C° 0 mm 1 mps 695 mmHg 65%
    17:00 +7°C° 0 mm 1 mps 695 mmHg 69%
    18:00 +6°C° 0 mm 1 mps 695 mmHg 73%
    19:00 +4°C° 0 mm 1 mps 695 mmHg 77%
    20:00 +4°C° 0 mm 1 mps 695 mmHg 77%
    21:00 +4°C° 0 mm 1 mps 695 mmHg 77%
    22:00 +3°C° 0 mm 1 mps 695 mmHg 77%
    23:00 +3°C° 0 mm 1 mps 695 mmHg 76%
    Show more